Location: Overspoor
(51.4747°N, 5.6641°E)
Time: 06:38:31
(UTC+02:00)

ESTCUBE 1 - Visible Passes

Search period start: 26 June 2022 00:00
Search period end: 06 July 2022 00:00
Orbit: 644 x 659 km, 97.9° (Epoch: 25 June)

Date Brightness Start Highest point End Pass type
(mag) Time Alt. Az. Time Alt. Az. Time Alt. Az.
26 Jun ? 00:06:34 13° S 00:10:16 45° W 00:14:35 10° NNW visible
26 Jun ? 22:56:20 10° SE 23:00:32 43° ENE 23:04:47 10° N visible
27 Jun ? 00:33:53 11° SSW 00:37:27 26° W 00:41:14 10° NW visible
27 Jun ? 23:23:22 12° SSE 23:27:27 75° ENE 23:31:57 10° N visible
28 Jun ? 01:02:06 10° SW 01:04:45 15° W 01:07:24 10° NW visible
28 Jun ? 23:50:41 14° S 23:54:29 63° WSW 23:58:57 10° NNW visible
29 Jun ? 22:40:57 10° SE 22:44:54 32° ENE 22:48:53 10° N visible
30 Jun ? 00:18:00 13° SSW 00:21:36 35° W 00:25:45 10° NNW visible
30 Jun ? 23:07:29 10° SSE 23:11:46 54° ENE 23:16:09 10° N visible
01 Jul ? 00:45:28 10° SW 00:48:50 21° W 00:52:15 10° NW visible
01 Jul ? 23:34:48 13° SSE 23:38:43 87° WSW 23:43:14 10° NNW visible
02 Jul ? 01:14:25 10° WSW 01:16:11 12° W 01:17:57 10° WNW visible
03 Jul ? 00:02:06 14° S 00:05:47 49° W 00:10:09 10° NNW visible
03 Jul ? 22:51:55 10° SE 22:56:05 40° ENE 23:00:16 10° N visible
04 Jul ? 00:29:25 12° SSW 00:32:57 28° W 00:36:50 10° NW visible
04 Jul ? 23:18:55 12° SSE 23:22:59 69° ENE 23:27:27 10° N visible
05 Jul ? 00:57:20 10° SW 01:00:13 17° W 01:03:07 10° NW visible
05 Jul ? 23:46:13 14° S 23:49:58 69° WSW 23:54:28 10° NNW visible
